EW0214 Weather Reports


Display with metric or nautical units.
time (UTC)temp
F
wind
direction
speed
MPH
gust
MPH
rain 1hr
in
rain 24hr
in
rain mn
in
humidity
%
barometer
mb
20260831231315 95 67 2.0 6.0 0.00 0.00 0.00 44 1013.1
20260831230815 95 136 2.0 6.0 0.00 0.00 0.00 44 1013.3
20260831230314 95 130 2.0 6.0 0.00 0.00 0.00 44 1013.2
20260831225812 95 146 2.0 6.0 0.00 0.00 0.00 44 1013.3
20260831225311 95 160 2.0 7.0 0.00 0.00 0.00 45 1013.2
20260831224812 95 111 3.0 7.0 0.00 0.00 0.00 45 1013.2
20260831224313 95 125 3.0 6.0 0.00 0.00 0.00 44 1013.2
20260831223813 95 75 3.0 9.0 0.00 0.00 0.00 44 1013.3
20260831223312 95 81 3.0 9.0 0.00 0.00 0.00 45 1013.3
20260831222812 96 80 3.0 9.0 0.00 0.00 0.00 44 1013.3
20260831222313 96 37 3.0 9.0 0.00 0.00 0.00 44 1013.4
20260831221812 96 119 3.0 8.0 0.00 0.00 0.00 43 1013.3
20260831221542 96 151 3.0 8.0 0.00 0.00 0.00 43 1013.3
20260831221041 96 144 3.0 8.0 0.00 0.00 0.00 41 1013.3
20260831220308 96 145 2.0 6.0 0.00 0.00 0.00 41 1013.2
20260831215808 96 121 3.0 10.0 0.00 0.00 0.00 42 1013.2
20260831215308 96 148 2.0 10.0 0.00 0.00 0.00 41 1013.3
20260831214808 97 149 2.0 6.0 0.00 0.00 0.00 42 1013.4
20260831214308 97 149 3.0 6.0 0.00 0.00 0.00 41 1013.4
20260831213809 97 154 3.0 9.0 0.00 0.00 0.00 42 1013.6
20260831213541 97 24 5.0 15.0 0.00 0.00 0.00 42 1013.7
20260831212807 98 148 4.0 15.0 0.00 0.00 0.00 40 1013.7
20260831212309 98 143 2.0 10.0 0.00 0.00 0.00 41 1013.8
20260831211809 98 127 3.0 10.0 0.00 0.00 0.00 41 1013.8
20260831211541 98 14 2.0 10.0 0.00 0.00 0.00 41 1013.9
20260831210808 98 164 3.0 10.0 0.00 0.00 0.00 42 1014.0
20260831210308 98 170 3.0 9.0 0.00 0.00 0.00 42 1014.0
20260831205809 98 188 2.0 9.0 0.00 0.00 0.00 42 1014.2
20260831205540 98 121 3.0 9.0 0.00 0.00 0.00 41 1014.3
20260831204807 99 75 3.0 9.0 0.00 0.00 0.00 41 1014.4
20260831204307 98 124 3.0 7.0 0.00 0.00 0.00 43 1014.5
20260831203806 98 105 3.0 8.0 0.00 0.00 0.00 42 1014.6
20260831203305 99 132 4.0 12.0 0.00 0.00 0.00 42 1014.7
20260831202805 98 145 5.0 14.0 0.00 0.00 0.00 42 1014.8
20260831202306 99 130 3.0 14.0 0.00 0.00 0.00 41 1014.9
20260831201805 99 167 3.0 9.0 0.00 0.00 0.00 43 1014.9
20260831201301 99 127 3.0 9.0 0.00 0.00 0.00 43 1015.2
20260831200801 101 160 3.0 8.0 0.00 0.00 0.00 41 1015.3
20260831200301 101 130 3.0 10.0 0.00 0.00 0.00 41 1015.4
20260831195803 101 113 4.0 11.0 0.00 0.00 0.00 42 1015.4
20260831195259 102 304 4.0 11.0 0.00 0.00 0.00 41 1015.5
20260831194800 102 118 3.0 10.0 0.00 0.00 0.00 42 1015.6
20260831194531 101 146 4.0 10.0 0.00 0.00 0.00 42 1015.6
20260831193759 101 169 4.0 10.0 0.00 0.00 0.00 43 1015.6
20260831193259 101 134 4.0 14.0 0.00 0.00 0.00 42 1015.8
20260831192754 101 107 3.0 14.0 0.00 0.00 0.00 43 1015.8
20260831192248 101 201 3.0 7.0 0.00 0.00 0.00 44 1015.8
20260831191742 101 160 4.0 9.0 0.00 0.00 0.00 43 1015.9
20260831191235 101 115 3.0 9.0 0.00 0.00 0.00 44 1015.9
20260831190730 101 188 3.0 8.0 0.00 0.00 0.00 43 1016.1
20260831190224 100 145 3.0 11.0 0.00 0.00 0.00 42 1016.2
20260831185717 100 130 3.0 11.0 0.00 0.00 0.00 44 1016.4
20260831185212 99 163 3.0 9.0 0.00 0.00 0.00 45 1016.2
20260831184706 98 144 4.0 10.0 0.00 0.00 0.00 45 1016.4
20260831184159 98 207 3.0 10.0 0.00 0.00 0.00 46 1016.4
20260831183654 98 177 2.0 8.0 0.00 0.00 0.00 47 1016.3
20260831183147 97 165 4.0 9.0 0.00 0.00 0.00 47 1016.5
20260831182642 97 126 5.0 10.0 0.00 0.00 0.00 48 1016.4
20260831182135 96 119 4.0 10.0 0.00 0.00 0.00 47 1016.4
20260831181629 96 150 2.0 8.0 0.00 0.00 0.00 48 1016.3
20260831181124 96 25 3.0 9.0 0.00 0.00 0.00 52 1016.4
20260831180617 95 150 4.0 11.0 0.00 0.00 0.00 53 1016.5
20260831180112 95 130 3.0 11.0 0.00 0.00 0.00 51 1016.7
20260831175606 94 180 3.0 9.0 0.00 0.00 0.00 53 1016.7
20260831175332 94 150 3.0 9.0 0.00 0.00 0.00 52 1016.9
20260831174553 94 152 3.0 11.0 0.00 0.00 0.00 52 1017.0
20260831174320 94 150 4.0 11.0 0.00 0.00 0.00 51 1017.0
20260831173542 94 131 4.0 10.0 0.00 0.00 0.00 52 1017.0
20260831173036 94 132 4.0 10.0 0.00 0.00 0.00 52 1017.1
20260831172530 93 163 4.0 11.0 0.00 0.00 0.00 54 1017.3
20260831172023 93 123 4.0 11.0 0.00 0.00 0.00 54 1017.3
20260831171518 93 178 3.0 10.0 0.00 0.00 0.00 57 1017.3
20260831171011 92 182 3.0 10.0 0.00 0.00 0.00 56 1017.6
20260831170506 92 142 3.0 8.0 0.00 0.00 0.00 58 1017.4
20260831170001 91 150 4.0 8.0 0.00 0.00 0.00 58 1017.4
20260831165453 91 127 3.0 8.0 0.00 0.00 0.00 59 1017.6
20260831165219 91 184 2.0 11.0 0.00 0.00 0.00 61 1017.6
20260831164442 90 194 1.0 11.0 0.00 0.00 0.00 62 1017.8
20260831163935 90 189 1.0 4.0 0.00 0.00 0.00 62 1017.8
20260831163430 89 182 2.0 7.0 0.00 0.00 0.00 63 1017.7
20260831162923 89 182 3.0 8.0 0.00 0.00 0.00 63 1017.7
20260831162418 89 150 3.0 8.0 0.00 0.00 0.00 63 1017.7
20260831161912 89 134 2.0 8.0 0.00 0.00 0.00 63 1017.7
20260831161406 89 137 2.0 8.0 0.00 0.00 0.00 64 1017.6
20260831160900 88 187 3.0 9.0 0.00 0.00 0.00 65 1017.6
20260831160354 88 183 2.0 9.0 0.00 0.00 0.00 66 1017.6
20260831155848 88 183 2.0 7.0 0.00 0.00 0.00 67 1017.6
20260831155341 88 176 3.0 8.0 0.00 0.00 0.00 67 1017.6
20260831155113 88 176 4.0 9.0 0.00 0.00 0.00 67 1017.6
20260831154342 88 155 3.0 9.0 0.00 0.00 0.00 67 1017.4
20260831153842 87 150 3.0 8.0 0.00 0.00 0.00 69 1017.4
20260831153341 87 174 3.0 8.0 0.00 0.00 0.00 70 1017.4
20260831152841 87 153 3.0 7.0 0.00 0.00 0.00 71 1017.4
20260831152341 86 126 2.0 7.0 0.00 0.00 0.00 73 1017.3
20260831151841 85 148 1.0 5.0 0.00 0.00 0.00 76 1017.3
20260831151341 84 231 2.0 6.0 0.00 0.00 0.00 78 1017.3
20260831150842 84 155 1.0 7.0 0.00 0.00 0.00 79 1017.3
20260831150342 83 184 1.0 7.0 0.00 0.00 0.00 79 1017.3
20260831145841 83 194 1.0 7.0 0.00 0.00 0.00 80 1017.4
20260831145613 82 139 3.0 11.0 0.00 0.00 0.00 81 1017.3
20260831144841 82 138 3.0 11.0 0.00 0.00 0.00 82 1017.2
20260831144340 82 175 2.0 9.0 0.00 0.00 0.00 84 1017.2
20260831143838 81 186 2.0 9.0 0.00 0.00 0.00 84 1017.1
20260831143611 80 159 1.0 6.0 0.00 0.00 0.00 85 1017.1
20260831142840 80 158 1.0 6.0 0.00 0.00 0.00 86 1017.0
20260831142336 80 144 1.0 8.0 0.00 0.00 0.00 86 1017.1
20260831141840 80 178 1.0 5.0 0.00 0.00 0.00 87 1017.0
20260831141835 80 144 1.0 8.0 0.00 0.00 0.00 86 1017.0
20260831140835 79 186 1.0 4.0 0.00 0.00 0.00 87 1016.8
20260831140336 79 179 1.0 6.0 0.00 0.00 0.00 87 1016.9
20260831135834 79 175 1.0 6.0 0.00 0.00 0.00 87 1016.8
20260831135336 79 190 1.0 5.0 0.00 0.00 0.00 87 1016.8
20260831134834 79 178 0.0 4.0 0.00 0.00 0.00 87 1016.8
20260831134336 79 180 0.0 2.0 0.00 0.00 0.00 87 1016.8
20260831133832 79 180 0.0 4.0 0.00 0.00 0.00 87 1016.7
20260831133332 78 180 0.0 4.0 0.00 0.00 0.00 87 1016.6
20260831132831 78 180 0.0 0.0 0.00 0.00 0.00 87 1016.6
20260831132331 78 180 0.0 0.0 0.00 0.00 0.00 87 1016.5
20260831131831 78 180 0.0 0.0 0.00 0.00 0.00 87 1016.5
20260831131330 78 180 0.0 0.0 0.00 0.00 0.00 87 1016.4
20260831130831 78 180 0.0 0.0 0.00 0.00 0.00 87 1016.4
20260831130332 78 180 0.0 0.0 0.00 0.00 0.00 87 1016.3
20260831125831 78 180 0.0 0.0 0.00 0.00 0.00 86 1016.2
20260831125326 77 180 0.0 0.0 0.00 0.00 0.00 86 1016.2
20260831124827 77 180 0.0 0.0 0.00 0.00 0.00 86 1016.2
20260831124557 77 180 0.0 0.0 0.00 0.00 0.00 86 1016.2
20260831123823 77 180 0.0 0.0 0.00 0.00 0.00 85 1016.2
20260831123552 77 180 0.0 0.0 0.00 0.00 0.00 85 1016.1
20260831122819 77 180 0.0 0.0 0.00 0.00 0.00 85 1016.1
20260831122317 77 180 0.0 0.0 0.00 0.00 0.00 85 1016.1
20260831121818 78 180 0.0 0.0 0.00 0.00 0.00 85 1016.2
20260831121318 78 180 0.0 0.0 0.00 0.00 0.00 85 1016.1
20260831120816 78 180 0.0 0.0 0.00 0.00 0.00 85 1016.0
20260831120314 78 180 0.0 0.0 0.00 0.00 0.00 85 1015.9
20260831120041 78 180 0.0 0.0 0.00 0.00 0.00 85 1015.9
20260831115310 78 180 0.0 0.0 0.00 0.00 0.00 85 1015.9
20260831114808 78 180 0.0 0.0 0.00 0.00 0.00 85 1015.9
20260831114305 78 180 0.0 0.0 0.00 0.00 0.00 85 1016.0
20260831113806 78 180 0.0 0.0 0.00 0.00 0.00 85 1016.1
20260831113304 78 180 0.0 0.0 0.00 0.00 0.00 85 1016.2
20260831112800 78 180 0.0 0.0 0.00 0.00 0.00 85 1016.2
20260831112301 78 180 0.0 0.0 0.00 0.00 0.00 85 1016.2
20260831111755 78 180 0.0 0.0 0.00 0.00 0.00 85 1016.1
20260831111249 78 180 0.0 0.0 0.00 0.00 0.00 85 1016.1
20260831111244 78 180 0.0 0.0 0.00 0.00 0.00 85 1016.1
20260831110509 78 180 0.0 0.0 0.00 0.00 0.00 85 1016.0
20260831105731 78 180 0.0 0.0 0.00 0.00 0.00 85 1016.0
20260831105225 78 180 0.0 0.0 0.00 0.00 0.00 85 1016.0
20260831104718 78 180 0.0 0.0 0.00 0.00 0.00 85 1015.9
20260831104211 78 180 0.0 1.0 0.00 0.00 0.00 85 1015.9
20260831103705 78 180 0.0 3.0 0.00 0.00 0.00 85 1015.9
20260831103159 78 180 0.0 3.0 0.00 0.00 0.00 85 1016.0
20260831102652 79 179 1.0 3.0 0.00 0.00 0.00 85 1016.0
20260831102147 79 179 0.0 3.0 0.00 0.00 0.00 84 1016.0
20260831101641 79 179 1.0 4.0 0.00 0.00 0.00 84 1016.0
20260831101134 79 179 1.0 5.0 0.00 0.00 0.00 84 1016.0
20260831100900 79 175 1.0 5.0 0.00 0.00 0.00 84 1016.0
20260831100123 79 182 1.0 4.0 0.00 0.00 0.00 84 1016.1
20260831095617 79 180 1.0 3.0 0.00 0.00 0.00 84 1016.1
20260831095112 79 181 1.0 6.0 0.00 0.00 0.00 84 1016.1
20260831095107 79 182 2.0 6.0 0.00 0.00 0.00 84 1016.1
20260831094329 79 182 1.0 4.0 0.00 0.00 0.00 84 1016.1
20260831093552 79 183 1.0 4.0 0.00 0.00 0.00 83 1016.0
20260831093046 79 180 2.0 4.0 0.00 0.00 0.00 83 1015.9
20260831092541 79 183 2.0 5.0 0.00 0.00 0.00 83 1015.9
20260831092035 79 184 2.0 5.0 0.00 0.00 0.00 83 1015.8
20260831091529 79 173 2.0 5.0 0.00 0.00 0.00 83 1015.7
20260831091023 79 163 2.0 6.0 0.00 0.00 0.00 83 1015.6
20260831090747 79 189 2.0 6.0 0.00 0.00 0.00 83 1015.8
20260831090010 79 170 2.0 5.0 0.00 0.00 0.00 82 1015.8
20260831085504 79 179 2.0 5.0 0.00 0.00 0.00 82 1015.8
20260831084959 79 156 2.0 6.0 0.00 0.00 0.00 82 1015.8
20260831084452 79 154 2.0 6.0 0.00 0.00 0.00 82 1015.8
20260831083947 80 182 2.0 6.0 0.00 0.00 0.00 82 1015.9
20260831083441 80 148 2.0 6.0 0.00 0.00 0.00 82 1015.9
20260831082934 80 148 2.0 6.0 0.00 0.00 0.00 82 1015.9
20260831082659 80 172 2.0 6.0 0.00 0.00 0.00 81 1016.0
20260831081923 80 157 3.0 7.0 0.00 0.00 0.00 81 1016.1
20260831081416 80 152 3.0 8.0 0.00 0.00 0.00 81 1016.0
20260831080910 80 147 3.0 8.0 0.00 0.00 0.00 81 1016.0
20260831080405 80 191 3.0 8.0 0.00 0.00 0.00 80 1016.0
20260831075859 80 163 3.0 8.0 0.00 0.00 0.00 80 1015.9
20260831075353 80 147 3.0 7.0 0.00 0.00 0.00 80 1015.9
20260831074846 80 175 3.0 8.0 0.00 0.00 0.00 80 1015.9
20260831074341 80 146 2.0 8.0 0.00 0.00 0.00 79 1015.9
20260831073835 80 169 2.0 6.0 0.00 0.00 0.00 79 1015.9
20260831073329 80 165 3.0 6.0 0.00 0.00 0.00 79 1016.0
20260831072822 81 152 3.0 8.0 0.00 0.00 0.00 78 1015.9
20260831072317 81 167 3.0 8.0 0.00 0.00 0.00 78 1015.9
20260831071812 81 122 3.0 8.0 0.00 0.00 0.00 77 1016.0
20260831071807 81 150 3.0 9.0 0.00 0.00 0.00 77 1016.0
20260831070759 81 155 4.0 10.0 0.00 0.00 0.00 77 1016.0
20260831070523 81 193 4.0 10.0 0.00 0.00 0.00 76 1016.1
20260831065747 81 170 4.0 13.0 0.00 0.00 0.00 76 1016.1
20260831065244 82 161 4.0 9.0 0.00 0.00 0.00 75 1016.2
20260831065240 82 153 4.0 13.0 0.00 0.00 0.00 75 1016.1
20260831064241 82 157 4.0 9.0 0.00 0.00 0.00 74 1016.2
20260831063740 82 149 4.0 9.0 0.00 0.00 0.00 74 1016.1
20260831063239 82 181 4.0 12.0 0.00 0.00 0.00 74 1016.2
20260831063013 82 150 5.0 12.0 0.00 0.00 0.00 73 1016.3
20260831062239 82 171 4.0 11.0 0.00 0.00 0.00 73 1016.1
20260831061741 82 165 4.0 11.0 0.00 0.00 0.00 73 1016.1
20260831061239 83 161 4.0 10.0 0.00 0.00 0.00 73 1016.0
20260831060739 83 98 5.0 10.0 0.00 0.00 0.00 73 1016.0
20260831060510 83 155 4.0 10.0 0.00 0.00 0.00 72 1016.1
20260831055740 83 150 4.0 9.0 0.00 0.00 0.00 72 1015.9
20260831055241 83 153 4.0 9.0 0.00 0.00 0.00 72 1015.9
20260831054740 83 142 4.0 9.0 0.00 0.00 0.00 72 1015.9
20260831054235 83 166 4.0 9.0 0.00 0.00 0.00 71 1015.9
20260831053736 84 154 4.0 9.0 0.00 0.00 0.00 71 1015.8
20260831053237 84 148 3.0 9.0 0.00 0.00 0.00 71 1015.7
20260831052736 84 173 3.0 7.0 0.00 0.00 0.00 70 1015.7
20260831052235 84 134 4.0 10.0 0.00 0.00 0.00 70 1015.7
20260831051736 85 143 4.0 10.0 0.00 0.00 0.00 69 1015.6
20260831051506 85 145 3.0 8.0 0.00 0.00 0.00 69 1015.5
20260831050735 85 156 3.0 8.0 0.00 0.00 0.00 68 1015.6
20260831050235 85 157 3.0 8.0 0.00 0.00 0.00 68 1015.6
20260831050001 85 160 3.0 8.0 0.00 0.00 0.00 67 1015.5
20260831045222 85 167 3.0 8.0 0.00 0.00 0.00 67 1015.5
20260831044717 86 177 3.0 8.0 0.00 0.00 0.00 66 1015.5
20260831044210 86 131 3.0 8.0 0.00 0.00 0.00 66 1015.6
20260831043705 86 149 3.0 9.0 0.00 0.00 0.00 66 1015.6
20260831043158 86 138 4.0 9.0 0.00 0.00 0.00 65 1015.6
20260831042653 86 170 4.0 9.0 0.00 0.00 0.00 65 1015.5
20260831042147 86 144 4.0 9.0 0.00 0.00 0.00 65 1015.5
20260831041643 86 173 4.0 9.0 0.00 0.00 0.00 65 1015.6
20260831041638 87 140 4.0 10.0 0.00 0.00 0.00 64 1015.5
20260831040629 87 147 5.0 10.0 0.00 0.00 0.00 64 1015.5
20260831040354 87 140 5.0 10.0 0.00 0.00 0.00 63 1015.5
20260831035617 87 136 5.0 10.0 0.00 0.00 0.00 63 1015.4
20260831035342 87 154 5.0 13.0 0.00 0.00 0.00 62 1015.4
20260831034605 87 126 5.0 13.0 0.00 0.00 0.00 62 1015.3
20260831034059 87 139 6.0 12.0 0.00 0.00 0.00 62 1015.2
20260831033553 88 123 6.0 12.0 0.00 0.00 0.00 61 1015.1
20260831033046 88 158 5.0 14.0 0.00 0.00 0.00 61 1015.1
20260831032542 88 148 5.0 14.0 0.00 0.00 0.00 60 1015.1
20260831032041 88 163 5.0 13.0 0.00 0.00 0.00 60 1015.0
20260831031813 88 154 5.0 12.0 0.00 0.00 0.00 60 1015.1
20260831031041 88 113 4.0 12.0 0.00 0.00 0.00 60 1014.9
20260831030542 88 128 4.0 9.0 0.00 0.00 0.00 60 1014.8
20260831030042 89 141 4.0 10.0 0.00 0.00 0.00 59 1014.8
20260831025542 89 148 4.0 10.0 0.00 0.00 0.00 59 1014.7
20260831025043 89 149 5.0 10.0 0.00 0.00 0.00 59 1014.7
20260831024815 89 149 5.0 11.0 0.00 0.00 0.00 59 1014.5
20260831024042 89 131 6.0 11.0 0.00 0.00 0.00 58 1014.4
20260831023541 89 148 5.0 10.0 0.00 0.00 0.00 58 1014.3
20260831023043 90 155 5.0 12.0 0.00 0.00 0.00 58 1014.1
20260831022542 90 128 5.0 12.0 0.00 0.00 0.00 57 1014.0
20260831022042 90 136 4.0 10.0 0.00 0.00 0.00 56 1013.8
20260831021543 90 134 5.0 10.0 0.00 0.00 0.00 55 1013.7
20260831021311 91 154 5.0 12.0 0.00 0.00 0.00 55 1013.7
20260831020537 91 116 6.0 13.0 0.00 0.00 0.00 55 1013.6
20260831020037 91 124 6.0 13.0 0.00 0.00 0.00 54 1013.4
20260831015808 91 175 7.0 16.0 0.00 0.00 0.00 54 1013.5
20260831015039 91 132 7.0 16.0 0.00 0.00 0.00 53 1013.3
20260831014538 91 171 6.0 13.0 0.00 0.00 0.00 52 1013.3
20260831014042 92 152 1.0 3.0 0.00 0.00 0.00 49 1013.0
20260831014037 92 133 3.0 12.0 0.00 0.00 0.00 50 1013.2
20260831013039 92 151 1.0 3.0 0.00 0.00 0.00 47 1013.0
20260831012534 92 151 1.0 3.0 0.00 0.00 0.00 47 1012.9
20260831012034 92 151 1.0 3.0 0.00 0.00 0.00 47 1012.9
20260831011535 92 152 1.0 3.0 0.00 0.00 0.00 47 1012.8
20260831011033 93 152 2.0 6.0 0.00 0.00 0.00 46 1012.9
20260831010538 93 158 2.0 5.0 0.00 0.00 0.00 46 1012.8
20260831010533 93 152 2.0 6.0 0.00 0.00 0.00 47 1012.8
20260831005534 94 158 2.0 5.0 0.00 0.00 0.00 46 1012.8
20260831005312 94 173 2.0 6.0 0.00 0.00 0.00 45 1012.8
20260831005034 94 158 2.0 5.0 0.00 0.00 0.00 46 1012.9
20260831004028 94 174 2.0 7.0 0.00 0.00 0.00 45 1012.8
20260831003521 94 171 3.0 7.0 0.00 0.00 0.00 45 1012.8
20260831003020 94 138 4.0 7.0 0.00 0.00 0.00 44 1012.6
20260831002520 95 170 3.0 8.0 0.00 0.00 0.00 44 1012.8
20260831002250 95 150 3.0 9.0 0.00 0.00 0.00 43 1012.6
20260831001519 95 153 3.0 9.0 0.00 0.00 0.00 43 1012.6
20260831001020 95 155 5.0 10.0 0.00 0.00 0.00 44 1012.8
20260831000519 95 140 5.0 11.0 0.00 0.00 0.00 43 1012.6
20260831000017 96 144 5.0 11.0 0.00 0.00 0.00 43 1012.8
20260830235748 96 144 3.0 9.0 0.00 0.00 0.00 43 1012.6
20260830235015 96 140 2.0 7.0 0.00 0.00 0.00 43 1012.6
20260830234518 96 161 2.0 8.0 0.00 0.00 0.00 43 1012.8
20260830234514 96 199 3.0 8.0 0.00 0.00 0.00 42 1012.8
20260830233512 96 134 3.0 7.0 0.00 0.00 0.00 42 1012.9
20260830233241 96 145 3.0 8.0 0.00 0.00 0.00 43 1012.9
20260830232510 96 142 4.0 9.0 0.00 0.00 0.00 42 1012.8
20260830232007 96 151 2.0 6.0 0.00 0.00 0.00 42 1012.8